Terminal Aerodrome Forecast
Issued by NWS

Home | Current Version | Previous Version | Text Only | Print | Product List | Glossary On
Versions: 1 2 3 4 5 6 7 8 9 10 11 12 13
000
FTUS45 KRIW 240500
TAFBPI
TAF
KBPI 240526Z 2406/2506 VRB06KT P6SM SCT050
     FM241500 20006KT P6SM SCT050 BKN070
     FM241800 29022G32KT P6SM VCSH SCT024 BKN040
     FM250100 33012G22KT P6SM SCT030 BKN070=

USA.gov is the U.S. government's official web portal to all federal, state and local government web resources and services.